This is the latest recevied weather packets stored in our database for station/object KF4UQS-14. If no packets are shown the sender has not sent any weather packets the latest 10 day(s).
| Time | Temp. | Humidity | Pressure | Rain* | Wind** | Luminosity | Snow |
|---|---|---|---|---|---|---|---|
| 1777554060 | 17.78° C | 84% | 1009.2 hPa | 0 mm | - | 159 W/m² | - |
| 1777553756 | 17.78° C | 83% | 1009.2 hPa | 0 mm | - | 123 W/m² | - |
| 1777553454 | 17.78° C | 84% | 1009.1 hPa | 0 mm | - | 137 W/m² | - |
| 1777553150 | 17.78° C | 85% | 1009.3 hPa | 0 mm | - | 141 W/m² | - |
| 1777552849 | 17.78° C | 86% | 1008.9 hPa | 0 mm | - | 125 W/m² | - |
| 1777552545 | 17.78° C | 89% | 1008.7 hPa | 0 mm | - | 130 W/m² | - |
| 1777552242 | 17.78° C | 91% | 1008.9 hPa | 0 mm | - | 131 W/m² | - |
| 1777551939 | 17.22° C | 93% | 1008.5 hPa | 0 mm | - | 132 W/m² | - |
| 1777551636 | 17.22° C | 94% | 1008.6 hPa | 0 mm | - | 101 W/m² | - |
| 1777551334 | 17.22° C | 94% | 1008.6 hPa | 0 mm | - | 62 W/m² | - |
| 1777551030 | 17.22° C | 95% | 1008.6 hPa | 0 mm | - | 83 W/m² | - |
| 1777550727 | 17.22° C | 95% | 1008.7 hPa | 0 mm | - | 68 W/m² | - |
| 1777550423 | 17.22° C | 95% | 1008.7 hPa | 0 mm | - | 55 W/m² | - |
| 1777550120 | 17.22° C | 96% | 1008.7 hPa | 0 mm | - | 56 W/m² | - |
| 1777549816 | 17.22° C | 96% | 1008.5 hPa | 0 mm | - | 50 W/m² | - |
| 1777549512 | 17.22° C | 96% | 1008.7 hPa | 0 mm | - | 81 W/m² | - |
| 1777549209 | 17.22° C | 96% | 1008.9 hPa | 0 mm | - | 62 W/m² | - |
| 1777548906 | 16.67° C | 96% | 1008.6 hPa | 0 mm | - | 50 W/m² | - |
| 1777548602 | 16.67° C | 96% | 1008.4 hPa | 0 mm | - | 49 W/m² | - |
| 1777548299 | 16.67° C | 96% | 1008.3 hPa | 0 mm | - | 56 W/m² | - |
| 1777547996 | 16.67° C | 96% | 1008 hPa | 0 mm | - | 44 W/m² | - |
| 1777547691 | 16.67° C | 96% | 1008 hPa | 0 mm | - | 49 W/m² | - |
| 1777547388 | 16.67° C | 96% | 1007.6 hPa | 0 mm | - | 30 W/m² | - |
| 1777547086 | 16.67° C | 96% | 1007.7 hPa | 0 mm | - | 27 W/m² | - |
| 1777546783 | 16.67° C | 96% | 1007.6 hPa | 0 mm | - | 29 W/m² | - |
* Rain latest hour (hover to see other rain measurements)
** Current wind speed in m/s (hover to see current wind gust speed)